ECMWFNIL_850_thetae_003.txt.gz
Theta_e
293 292 292 292 292 292 292 292 292 291 291 291 291 291 290 290 290 289 289 289 289 289 289 289 289 289 288 288 288 287 287 287 287 286 286 286 286 285 285 285 285 284
292 292 292 292 292 292 291 291 291 291 291 290 290 290 290 290 289 289 289 289 289 289 289 289 289 288 288 288 287 287 287 286 286 286 286 286 285 285 285 285 285 284
292 292 292 291 291 291 291 291 290 290 290 290 289 290 290 289 289 289 289 289 289 289 289 288 288 288 287 287 286 286 286 286 286 286 286 286 286 285 285 285 284 284
292 292 291 291 291 291 290 290 290 290 290 289 289 289 289 289 289 289 289 289 289 288 288 288 287 287 287 286 286 286 286 286 286 286 286 286 286 285 285 284 284 283
292 291 291 291 290 290 290 290 290 290 289 289 289 289 289 289 288 289 289 289 288 288 288 287 287 287 286 286 285 285 286 286 286 286 286 286 285 285 284 284 283 283
292 291 290 290 290 290 290 290 289 289 289 289 289 289 289 288 288 288 288 288 288 287 287 287 286 286 286 285 285 285 286 286 286 286 285 285 285 284 283 283 282 282
292 291 290 290 290 289 289 289 289 289 289 289 289 288 288 288 288 288 288 288 287 287 286 286 286 286 285 285 285 286 286 285 285 285 285 285 284 284 283 282 282 282
292 291 290 290 289 289 289 289 289 289 289 289 288 288 288 288 288 288 287 287 287 286 286 286 285 285 285 285 285 285 285 285 285 284 284 284 284 283 283 282 281 281
291 291 290 289 289 289 289 289 289 289 288 289 288 288 288 288 288 287 287 287 286 286 286 285 285 285 285 285 285 285 284 284 284 284 284 284 283 283 282 281 281 280
291 290 289 289 289 289 289 288 288 288 288 288 288 288 288 288 287 287 287 286 286 286 285 285 285 285 285 285 284 284 284 284 284 284 283 283 283 283 282 281 280 279
291 290 289 289 289 289 288 288 288 288 288 288 288 288 288 287 287 287 286 286 286 285 285 284 284 284 284 284 284 284 284 284 283 283 283 283 283 283 281 280 278 278
290 290 289 288 288 288 288 288 288 288 288 288 288 288 288 287 287 287 286 286 285 285 285 284 284 284 284 284 284 283 283 283 283 283 283 283 282 282 281 279 277 276
290 289 288 288 288 288 288 288 288 288 288 288 288 288 287 287 287 286 286 285 285 285 284 284 284 283 283 283 283 283 283 283 283 283 283 283 282 282 281 279 277 276
290 289 288 288 288 288 288 288 288 288 288 288 288 287 287 287 286 286 285 285 285 284 284 284 283 283 283 283 283 283 282 282 282 283 283 283 282 280 279 277 276 274
289 288 288 288 288 288 288 288 288 288 288 288 287 287 287 286 286 285 285 284 284 284 284 283 283 283 283 283 282 282 282 282 282 283 283 282 280 278 277 275 274 274
289 288 288 288 288 288 288 288 288 288 288 288 287 287 286 286 285 285 284 284 284 284 283 283 283 283 282 282 282 281 281 281 282 282 281 280 278 277 276 275 274 273
289 288 287 288 288 288 288 288 288 288 288 287 287 287 286 286 285 285 284 284 284 283 283 283 282 282 282 281 281 281 281 281 281 280 279 278 276 275 275 274 274 273
289 288 287 287 288 288 288 288 288 288 287 287 287 286 286 285 285 284 284 284 283 283 282 282 282 282 281 281 281 281 281 280 280 279 277 276 275 274 274 274 274 273
288 287 287 287 287 288 288 288 288 288 287 287 286 286 286 285 285 284 284 283 283 282 282 282 281 281 281 280 280 280 280 280 279 277 276 275 275 274 274 273 273 273
287 287 287 287 287 288 288 288 288 287 287 287 286 286 285 285 284 284 283 283 282 282 282 281 281 280 280 280 280 280 280 279 278 277 275 275 274 274 274 274 274 274
287 287 287 287 287 288 288 288 287 287 287 286 286 285 285 284 283 283 283 283 282 281 281 281 280 280 280 280 280 280 280 279 278 277 276 275 274 274 274 274 274 274
287 287 287 287 287 288 288 287 287 286 286 286 285 285 284 283 283 283 283 282 282 281 281 280 280 280 280 280 280 279 279 279 279 277 276 275 274 274 274 274 274 274
287 287 287 287 288 288 287 287 286 286 286 285 285 284 283 283 283 283 282 282 281 281 280 280 280 279 279 279 279 279 279 279 278 276 275 274 274 274 274 275 275 275
287 287 287 287 287 287 287 286 286 285 285 284 284 283 283 282 282 282 282 281 281 280 280 279 279 279 279 279 279 278 278 278 276 275 275 275 274 274 275 275 275 276
287 287 287 287 287 287 286 286 285 284 284 284 283 283 282 282 282 282 281 281 280 280 279 279 279 279 278 278 278 278 277 276 274 274 274 274 274 275 275 276 276 276
287 287 287 287 287 287 286 285 284 284 283 283 282 282 281 282 282 281 281 280 280 279 279 278 278 278 278 278 278 278 276 274 273 274 274 274 275 275 275 276 275 275

ECMWFNIL_850_thetae_006.txt.gz
Theta_e
298 297 296 296 295 295 295 294 294 294 294 293 293 293 293 293 294 294 294 293 293 292 291 290 290 289 289 289 289 289 289 288 288 288 288 288 287 287 287 287 287 286
299 297 296 295 295 295 294 294 294 294 293 293 293 293 293 293 293 293 293 293 292 291 290 290 290 289 289 289 289 289 288 288 288 288 287 287 287 287 287 287 286 286
300 299 297 296 295 295 294 294 294 293 293 293 292 293 293 293 293 293 293 292 292 291 290 290 289 289 289 289 288 288 288 288 288 287 287 287 287 286 286 286 286 286
301 300 298 297 295 294 294 294 293 293 293 292 292 292 292 293 293 293 293 292 291 290 290 289 289 289 289 288 288 288 288 288 287 287 287 287 286 286 286 286 286 286
302 300 298 297 295 294 294 293 293 293 292 292 292 292 292 292 292 292 292 291 291 290 289 289 289 289 288 288 288 288 287 287 287 287 286 286 286 286 286 285 285 285
301 300 298 297 295 294 294 293 293 292 292 292 292 292 292 292 292 292 292 291 290 290 289 289 289 289 288 288 288 288 287 287 287 286 286 286 286 285 285 285 285 285
301 300 298 297 295 294 293 293 293 292 292 291 291 292 292 292 292 291 291 290 290 289 289 289 289 288 288 288 288 287 287 287 286 286 286 285 285 285 285 285 285 284
301 299 298 296 295 294 293 293 292 292 291 291 291 291 291 291 291 291 290 290 290 289 289 289 288 288 288 287 287 287 286 286 286 285 285 285 285 285 285 284 284 284
300 299 298 296 295 294 293 293 292 291 291 291 291 291 291 291 291 290 290 289 289 289 289 288 288 288 287 287 287 286 286 286 285 285 285 285 284 284 284 284 284 284
300 298 297 296 295 294 293 293 292 291 291 291 290 290 291 291 290 290 289 289 289 288 288 288 288 287 287 287 286 286 286 285 285 285 284 284 284 284 284 283 283 284
299 298 297 296 295 294 293 292 292 291 290 290 290 290 290 290 290 289 289 289 288 288 288 287 287 287 286 286 286 285 285 285 284 284 284 284 284 283 283 283 283 284
298 297 297 296 295 294 293 292 291 291 290 290 290 290 290 289 289 289 289 288 288 287 287 287 287 286 286 286 285 285 285 284 284 284 284 284 283 283 283 283 283 283
298 297 296 295 294 293 292 291 291 290 289 289 289 289 289 289 289 289 288 288 287 287 287 286 286 286 285 285 285 284 284 284 283 283 283 283 283 283 282 282 282 282
297 296 294 293 292 291 291 291 290 290 289 289 289 289 289 289 288 288 288 287 287 287 286 286 285 285 285 285 284 284 284 283 283 283 283 282 282 282 282 282 282 282
296 294 293 292 291 290 290 290 290 289 289 289 289 289 289 288 288 288 287 287 286 286 286 285 285 284 284 284 284 283 283 283 283 283 282 282 282 281 281 281 281 281
294 293 292 291 290 289 290 290 289 289 288 289 289 289 288 288 288 287 287 286 286 286 285 285 284 284 283 283 283 283 283 283 282 282 281 281 281 281 280 280 280 280
293 292 291 290 289 289 290 290 289 288 288 288 289 288 288 288 288 287 286 286 286 285 285 284 283 283 283 283 282 282 282 282 281 281 281 280 280 280 280 280 279 278
293 291 290 289 289 289 289 289 289 288 288 288 288 288 288 288 287 287 286 286 285 285 284 283 283 282 282 282 282 281 281 281 280 280 280 280 280 279 279 278 278 276
292 291 290 289 289 289 289 289 289 288 288 288 288 288 287 287 287 286 286 285 285 284 284 283 282 282 282 282 281 281 281 280 280 279 279 279 279 278 278 277 277 275
292 291 290 289 289 289 289 289 288 288 288 288 288 287 287 287 286 286 285 285 284 284 283 283 282 282 282 281 281 281 280 279 279 279 279 279 279 278 277 277 276 275
292 290 289 289 289 289 289 288 288 288 288 287 287 287 287 286 286 285 285 285 284 284 283 282 282 282 282 281 281 280 280 279 279 279 279 279 278 278 278 277 276 275
292 290 290 289 289 289 289 288 287 287 287 287 287 287 286 286 286 286 285 285 284 284 283 282 282 282 281 281 280 280 279 279 279 279 279 279 278 278 277 276 275 275
292 291 290 289 288 289 288 288 287 287 287 287 287 287 286 286 286 286 285 285 284 284 283 282 282 281 281 281 280 279 279 278 279 279 279 278 278 277 276 276 275 275
292 291 290 289 289 289 288 287 287 287 287 287 287 286 286 286 286 286 285 285 284 284 283 282 281 281 281 280 279 279 278 278 279 279 278 278 277 276 276 275 275 275
292 291 290 289 289 289 288 287 287 287 287 287 286 286 286 286 286 286 285 285 284 283 283 282 281 281 280 279 279 278 278 278 278 278 277 276 276 275 275 275 275 274
292 290 289 289 289 288 287 287 287 287 287 287 286 286 286 286 286 285 285 284 283 282 282 281 281 280 279 279 279 279 278 278 278 277 276 275 275 275 275 274 274 274

ECMWFNIL_850_thetae_009.txt.gz
Theta_e
306 305 304 304 304 304 303 302 300 299 298 297 297 296 296 296 295 295 294 294 294 294 294 294 294 294 294 294 294 294 293 291 289 289 289 288 288 287 287 287 286 286
307 305 304 303 303 304 304 303 302 300 298 297 296 296 295 295 295 294 293 293 293 294 294 294 294 294 294 294 294 294 292 290 289 289 288 288 288 287 287 287 286 286
307 306 305 304 304 305 305 304 302 300 298 296 296 295 295 294 294 293 293 293 293 293 293 294 294 294 294 294 293 293 291 289 289 288 288 288 287 287 287 286 286 286
307 307 307 306 304 304 303 303 302 301 298 296 295 294 294 294 293 293 293 293 293 293 293 293 293 293 293 293 293 291 290 289 288 288 288 287 287 287 287 286 286 286
307 307 307 306 304 302 302 301 301 300 299 297 295 294 293 293 293 293 292 292 293 293 293 293 293 293 293 293 292 290 289 288 288 288 287 287 287 286 286 286 286 286
306 306 306 305 304 302 301 301 300 299 299 297 295 294 293 293 293 292 292 292 292 292 293 293 293 293 293 292 291 290 289 288 287 287 287 287 286 286 286 286 286 286
306 306 306 305 304 302 301 300 299 298 298 297 295 294 293 293 292 292 292 292 292 292 292 293 293 293 292 292 290 289 288 288 287 287 286 286 286 286 286 286 286 285
305 305 305 304 303 302 301 300 299 298 297 296 295 294 293 292 292 292 292 292 292 292 292 292 292 292 292 291 290 289 288 287 287 287 286 286 286 286 286 285 285 286
304 303 304 303 302 301 300 299 298 297 296 296 295 294 293 292 292 291 291 291 292 292 292 292 292 292 292 291 290 289 288 287 287 286 286 286 286 286 286 285 286 286
303 303 303 302 302 301 299 298 296 295 294 294 294 293 292 291 291 291 291 291 291 292 292 292 292 292 291 290 289 288 287 287 287 286 286 286 286 286 285 286 286 285
303 302 302 302 301 300 298 297 295 294 293 293 293 292 292 291 291 291 291 291 291 291 292 292 292 291 291 290 289 288 287 287 286 286 286 286 286 285 285 286 285 285
302 302 301 301 301 299 298 296 295 294 293 292 292 292 291 291 291 291 291 291 291 291 291 291 291 291 290 289 288 287 287 286 286 286 286 285 285 285 285 285 285 285
303 302 301 300 299 298 297 295 294 294 292 292 291 291 291 290 290 290 290 290 291 291 291 291 291 290 289 288 287 287 287 286 286 285 285 285 285 285 285 285 285 284
302 302 300 299 298 297 296 295 294 293 292 291 291 291 291 290 290 290 290 290 290 291 291 291 290 290 288 287 287 286 286 286 286 285 285 285 285 285 285 284 284 284
301 300 299 298 297 296 296 295 294 293 292 291 291 291 290 290 290 290 290 290 290 290 290 290 290 289 288 287 286 286 286 286 285 285 285 285 285 285 285 284 284 283
300 300 299 297 296 296 296 295 294 293 291 291 290 290 290 289 289 289 289 290 290 290 290 289 289 288 287 286 286 286 286 285 285 285 285 285 285 284 284 284 284 283
300 299 298 297 296 295 295 294 293 292 291 290 290 290 290 289 289 289 289 289 290 289 289 289 288 287 286 286 286 286 286 285 285 285 285 285 284 284 284 284 283 282
300 299 298 296 295 295 294 293 293 291 290 290 290 290 289 289 288 288 289 289 289 289 289 288 287 286 286 286 286 286 285 285 285 285 285 285 284 284 283 283 282 281
300 299 297 296 296 295 294 293 292 291 290 290 290 290 289 289 288 288 289 289 289 288 288 287 286 286 286 286 285 285 285 285 285 285 285 285 284 283 282 282 281 280
299 298 297 296 296 295 294 293 292 291 290 290 290 290 289 289 288 288 288 288 288 288 287 287 286 286 286 286 285 285 285 285 285 285 285 284 283 282 282 281 280 279
299 298 297 296 295 295 294 293 292 291 290 290 289 290 289 289 288 288 288 288 288 287 287 286 286 286 286 286 285 285 285 285 285 285 284 283 282 281 280 280 279 279
300 299 298 297 295 295 293 292 292 291 290 290 289 289 289 288 288 288 288 288 287 287 286 286 286 286 286 286 286 286 285 285 285 284 283 282 281 280 280 279 279 280
301 299 298 297 296 295 293 292 291 291 290 290 289 289 288 288 288 288 288 287 287 287 286 286 286 286 286 286 286 285 285 285 284 283 282 281 280 280 279 279 280 280
301 300 298 297 296 295 294 292 291 290 290 290 289 289 288 287 287 287 287 287 287 286 286 286 286 286 287 286 286 285 284 283 283 282 281 280 280 279 279 279 280 280
301 299 298 297 296 295 294 292 292 291 290 289 289 288 288 287 287 287 287 287 286 286 286 286 287 287 287 286 285 284 283 282 282 281 280 280 279 279 279 279 279 279
301 299 298 298 296 295 293 292 291 290 289 289 288 287 287 287 287 287 286 286 286 286 286 287 287 287 286 286 285 283 282 281 281 280 280 280 279 279 279 278 278 278

ECMWFNIL_850_thetae_015.txt.gz
Theta_e
309 309 309 309 309 309 309 309 308 308 308 308 307 307 306 305 304 303 302 301 299 298 296 295 295 294 295 295 295 295 295 295 295 295 295 295 295 295 295 295 295 295
309 309 309 308 309 309 309 309 309 308 308 308 307 306 305 305 304 303 302 301 300 298 296 295 294 294 294 294 294 294 294 295 295 295 295 295 295 295 295 295 295 295
309 309 309 309 309 309 309 308 308 308 308 307 306 306 305 305 303 303 302 301 300 299 297 296 294 294 294 294 294 294 294 294 294 295 294 294 294 294 294 294 295 295
310 310 310 310 309 309 308 308 308 308 308 307 307 306 305 304 303 302 301 300 300 299 298 296 294 294 293 293 293 293 293 294 294 294 294 294 294 294 294 294 294 294
310 309 309 310 309 309 309 308 308 308 308 307 307 306 305 304 303 302 301 300 299 299 298 296 295 294 293 293 293 293 293 293 294 294 294 294 294 294 294 294 294 294
310 310 309 309 309 309 309 309 309 308 308 307 307 306 305 305 304 303 301 300 299 298 298 297 295 294 293 293 292 292 293 293 293 293 294 294 294 294 294 294 294 294
311 311 310 309 308 308 308 308 308 308 308 307 306 306 305 305 304 303 302 300 299 298 298 297 296 294 293 293 292 292 292 292 293 293 293 293 293 293 294 293 294 293
311 310 309 309 308 307 307 307 308 308 307 307 306 306 305 305 304 303 302 300 298 298 297 297 296 295 294 293 292 292 292 292 292 293 293 293 293 293 293 293 293 293
309 309 308 308 307 307 307 307 307 307 307 307 307 306 305 305 304 303 302 300 298 297 297 296 296 295 294 293 292 292 292 292 292 292 293 293 293 293 293 293 293 292
309 308 307 307 307 307 307 308 307 307 307 307 306 306 305 305 304 303 301 300 298 297 297 296 296 295 294 293 292 292 292 292 292 292 292 293 293 293 293 293 293 292
310 309 308 307 307 307 308 308 307 307 306 306 306 305 305 305 304 303 301 300 299 298 297 296 296 295 294 293 293 292 292 291 292 292 292 292 292 292 292 292 292 292
309 309 308 308 308 308 308 307 307 306 305 305 305 305 305 304 303 303 302 301 300 298 297 296 295 295 294 293 293 292 292 291 291 291 292 292 292 292 292 292 292 291
308 309 308 308 308 308 307 306 305 304 304 304 303 303 303 303 303 303 302 301 300 298 297 296 295 295 294 293 293 292 292 291 291 291 291 291 291 291 291 291 291 291
307 308 308 307 307 306 306 305 303 302 302 302 302 302 302 302 302 302 301 299 298 297 297 296 295 295 294 293 292 292 291 291 291 291 291 291 291 291 291 291 291 290
307 307 307 306 305 305 305 304 303 302 301 302 302 301 300 299 299 299 298 297 297 296 295 295 295 295 294 293 293 292 291 291 290 290 291 291 290 290 290 290 290 289
306 306 305 305 304 304 304 303 302 301 301 301 301 300 299 298 297 297 297 296 296 295 295 295 294 294 294 293 293 292 291 290 290 290 290 290 290 290 290 290 289 289
304 304 304 303 303 303 303 302 301 301 301 301 300 299 298 297 297 297 296 296 295 295 295 295 294 294 294 293 292 292 291 290 290 290 290 290 290 290 289 289 289 288
303 303 303 302 303 303 302 302 301 300 300 300 299 299 298 297 297 296 296 295 295 294 294 294 294 294 293 293 292 291 290 290 289 289 289 289 289 289 289 288 288 288
302 302 302 302 302 302 302 301 300 300 300 300 300 299 298 297 297 296 295 295 294 294 294 293 293 293 293 292 292 291 290 289 289 289 289 289 289 288 288 288 287 287
300 300 301 301 301 301 301 300 300 300 300 300 299 298 298 298 297 296 295 295 294 293 293 293 292 292 292 292 291 291 290 289 288 288 288 288 288 288 288 287 287 287
298 299 299 299 299 299 299 299 299 299 299 299 299 298 298 298 297 296 295 294 293 293 292 292 292 292 291 291 291 290 289 288 288 287 287 287 287 287 287 287 286 286
297 297 297 297 297 298 298 298 299 299 299 299 298 298 297 296 295 295 294 293 292 292 292 291 291 291 291 290 290 289 288 288 287 287 287 286 286 286 286 286 286 286
297 297 296 296 296 296 297 297 297 297 297 297 296 296 295 295 294 293 293 292 292 291 291 291 290 290 290 290 289 288 288 287 287 286 286 286 286 286 286 286 286 286
297 296 296 295 295 295 295 296 296 296 296 295 295 295 294 294 294 293 292 291 291 291 290 290 290 290 290 290 289 288 287 287 286 286 286 286 285 285 285 285 286 285
298 296 295 295 294 294 294 294 294 295 294 294 294 294 293 293 293 292 292 291 291 291 290 290 290 290 290 290 288 287 286 286 286 286 285 285 285 285 285 285 285 285
298 297 296 295 294 293 293 293 293 293 293 293 293 292 292 292 292 291 291 291 291 291 290 290 290 290 290 289 287 285 285 285 285 285 285 285 286 286 285 285 285 285

ECMWFNIL_850_thetae_021.txt.gz
Theta_e
304 304 304 305 305 305 305 305 305 305 306 306 306 306 307 307 307 307 306 306 306 305 305 304 304 303 302 301 300 299 298 298 297 296 295 295 295 295 295 296 296 296
304 304 304 304 304 304 304 305 304 304 305 305 305 305 305 306 306 306 306 306 306 305 305 304 304 303 302 301 300 300 299 298 297 296 295 295 295 295 295 295 296 296
304 304 304 304 304 304 304 304 304 304 304 304 304 305 305 305 305 305 305 305 305 305 305 305 304 304 303 302 301 300 299 299 298 297 296 295 295 294 295 295 295 295
303 303 303 303 303 303 303 303 303 304 304 303 304 304 304 304 304 304 304 304 304 304 304 304 304 304 303 302 301 300 299 299 298 297 296 295 295 294 294 294 295 295
302 302 302 302 302 302 302 303 303 303 304 304 304 303 303 304 304 304 304 304 303 303 303 303 303 303 303 302 301 300 300 299 298 297 296 295 295 294 294 294 294 294
302 302 301 301 301 301 302 302 302 303 303 303 304 303 303 303 303 303 303 303 303 303 303 303 302 302 302 302 301 301 300 299 298 298 297 295 294 294 294 294 294 294
303 303 302 301 300 300 301 301 302 302 302 302 302 302 303 303 303 303 303 303 303 303 303 303 302 302 302 302 301 301 300 299 299 298 297 296 295 294 293 293 294 294
304 304 304 303 302 300 300 300 301 301 301 301 302 302 302 302 302 302 302 302 302 302 302 302 302 302 302 302 302 301 301 300 299 299 298 296 295 294 293 293 293 293
303 303 303 303 303 302 301 300 300 300 300 300 300 301 301 301 301 301 301 301 301 301 301 301 301 301 301 302 302 302 301 300 300 300 299 298 296 295 294 293 293 293
301 302 302 302 303 303 302 301 300 300 300 300 299 299 299 300 300 300 300 300 300 300 300 300 301 301 301 301 302 302 302 301 301 300 300 299 298 297 295 294 293 293
298 299 300 301 302 302 302 302 301 301 300 300 299 299 299 299 299 299 299 299 300 300 300 300 300 300 300 300 301 301 301 302 302 301 300 299 299 298 296 295 294 293
297 297 297 298 300 301 301 301 301 301 301 301 300 299 299 298 298 298 298 298 299 299 299 299 299 299 299 299 300 300 300 300 301 301 301 300 299 298 297 297 295 294
295 295 296 296 297 299 300 301 301 301 301 301 300 300 299 298 298 298 298 298 298 298 298 298 298 298 298 298 298 298 299 299 299 300 300 300 299 299 298 297 296 295
292 293 294 295 295 296 298 299 301 301 301 301 301 300 299 298 297 297 297 297 297 297 297 297 297 297 297 297 297 297 297 298 298 299 299 299 299 299 298 297 297 295
291 292 292 293 294 295 296 297 298 300 300 300 300 300 300 299 298 297 296 296 296 296 296 296 296 296 296 296 296 297 297 297 297 298 298 298 298 298 297 297 297 296
291 291 291 292 292 293 294 295 295 297 298 300 299 299 299 299 299 298 296 296 295 295 295 295 295 296 296 296 296 296 296 296 296 297 297 297 298 297 297 296 296 296
291 291 291 291 291 292 292 293 294 295 296 298 299 299 297 297 297 297 296 295 294 294 294 294 295 295 295 295 296 296 295 295 295 296 296 296 297 297 297 296 296 295
290 290 290 291 291 291 291 292 292 293 294 296 297 298 297 296 295 295 295 294 293 293 293 293 294 294 294 294 294 295 295 294 294 294 295 295 296 296 296 296 295 295
288 289 289 290 290 290 291 291 291 292 293 294 295 297 297 296 295 294 293 293 292 292 292 293 293 293 293 293 294 294 294 293 293 293 294 294 294 295 296 295 295 294
287 287 287 288 288 289 290 290 290 290 291 292 293 295 296 297 295 294 293 292 292 292 292 292 292 292 292 292 293 293 292 293 292 292 292 293 293 294 294 295 294 294
287 286 286 286 286 287 288 289 290 290 290 290 291 292 294 296 296 295 293 292 291 291 291 291 291 291 291 291 292 291 291 291 291 291 291 292 292 293 293 293 294 293
286 286 286 286 285 285 286 287 288 289 289 290 290 291 292 294 295 295 294 292 291 291 290 291 291 291 290 291 291 290 290 290 290 290 291 291 291 292 292 292 292 292
285 285 285 285 285 285 285 285 286 287 288 289 289 290 291 292 293 294 295 293 292 291 290 290 290 290 290 290 290 290 290 289 289 290 290 290 291 291 291 291 291 291
285 285 285 285 285 285 285 285 285 285 286 287 288 288 289 290 291 293 294 294 293 292 290 290 290 290 290 289 289 289 289 289 289 289 289 290 290 290 290 290 290 290
285 285 285 285 285 285 285 285 285 285 285 285 286 287 288 289 290 291 293 294 294 293 292 290 289 289 289 289 289 289 288 288 288 288 288 289 289 289 289 288 288 288
284 284 284 284 284 285 285 285 285 285 284 285 285 286 287 288 288 289 291 293 294 294 293 292 290 289 288 288 288 288 288 287 287 288 288 288 288 288 288 288 288 287